Irkutsk, Russia

2:11 PM +08 on October 16, 2018 (GMT +0800)
Irkutsk

Weather History for UIII - June, 2018

Change the Weather History Date:

Wednesday, June 13, 2018

  Actual Average Record
Temperature  
Mean Temperature 69 °F -  
Max Temperature 85 °F - - ()
Min Temperature 53 °F - - ()
Cooling Degree Days 4    
Growing Degree Days 19 (Base 50)    
Moisture  
Dew Point 51 °F    
Average Humidity 57    
Maximum Humidity 88    
Minimum Humidity 20    
Precipitation  
Precipitation 0.00 in - - ()
Sea Level Pressure  
Sea Level Pressure 29.68 in    
Wind  
Wind Speed 4 mph ()    
Max Wind Speed 18 mph    
Max Gust Speed -    
Visibility 12.0 miles    
Events      
T = Trace of Precipitation, MM = Missing Value Source: Averaged Metar Reports

Daily Weather History Graph

Daily Weather History Graph

Search for Another Location

Airport or City:

Astronomy

Jun. 13, 2018 Rise Set
Actual Time 4:40 AM +08 9:24 PM +08
Civil Twilight 3:51 AM +08 10:13 PM +08
Nautical Twilight 2:33 AM +08 11:33 PM +08
Astronomical Twilight Sun does not rise Sun does not rise
Moon 4:33 AM +08 (6/13) 8:30 PM +08 (6/13)
Length of Visible Light 18h 21m
Length of Day
16h 43m
Waning Crescent, 1% of the Moon is Illuminated
Jun 13
Waning Crescent
Jun 14
New
Jun 20
First Quarter
Jun 28
Full
Jul 6
Last Quarter

Hourly Weather History & Observations

Time (+08) Temp. Heat Index Dew Point Humidity Pressure Visibility Wind Dir Wind Speed Gust Speed Precip Events Conditions
12:00 AM 60.8 °F - 50.0 °F 68% 29.71 in - Variable 2.2 mph - N/A   Clear
12:30 AM 59.0 °F - 50.0 °F 72% 29.71 in - East 4.5 mph - N/A   Clear
1:00 AM 59.0 °F - 48.2 °F 67% 29.71 in - East 4.5 mph - N/A   Clear
1:30 AM 59.0 °F - 48.2 °F 67% 29.71 in - East 4.5 mph - N/A   Clear
2:00 AM 60 °F - 49 °F 56% 29.70 in - East 2.2 mph - -   Clear
2:00 AM 53.6 °F - 48.2 °F 82% 29.71 in - East 6.7 mph - N/A   Clear
2:30 AM 55.4 °F - 48.2 °F 77% 29.71 in - East 4.5 mph - N/A   Clear
3:00 AM 51.8 °F - 46.4 °F 82% 29.71 in - East 4.5 mph - N/A   Clear
3:30 AM 50.0 °F - 46.4 °F 87% 29.71 in - East 4.5 mph - N/A   Clear
4:00 AM 50.0 °F - 46.4 °F 87% 29.71 in - East 4.5 mph - N/A   Clear
4:30 AM 50.0 °F - 46.4 °F 87% 29.71 in - East 4.5 mph - N/A   Clear
5:00 AM 55 °F - 48 °F 71% 29.72 in 31 mi ESE 2.2 mph - -   Mostly Cloudy
5:00 AM 50.0 °F - 46.4 °F 87% 29.71 in - East 6.7 mph - N/A   Clear
5:30 AM 51.8 °F - 48.2 °F 88% 29.71 in - East 4.5 mph - N/A   Clear
6:00 AM 53.6 °F - 50.0 °F 88% 29.71 in - East 4.5 mph - N/A   Clear
6:30 AM 55.4 °F - 50.0 °F 82% 29.71 in - Variable 2.2 mph - N/A   Clear
7:00 AM 55.4 °F - 48.2 °F 77% 29.71 in - East 4.5 mph - N/A   Clear
7:30 AM 59.0 °F - 50.0 °F 72% 29.71 in - ENE 6.7 mph - N/A   Clear
8:00 AM 65 °F - 49 °F 46% 29.70 in 31 mi Calm Calm - -   Clear
8:00 AM 64.4 °F - 51.8 °F 64% 29.71 in - ENE 4.5 mph - N/A   Clear
8:30 AM 66.2 °F - 53.6 °F 64% 29.71 in - Variable 2.2 mph - N/A   Clear
9:00 AM 68.0 °F - 53.6 °F 60% 29.71 in - South 4.5 mph - N/A   Clear
9:30 AM 69.8 °F - 53.6 °F 56% 29.71 in - Variable 2.2 mph - N/A   Clear
10:00 AM 71.6 °F - 55.4 °F 57% 29.71 in - Variable 2.2 mph - N/A   Clear
10:30 AM 77.0 °F - 55.4 °F 47% 29.71 in - Variable 2.2 mph - N/A   Clear
11:00 AM 77 °F - 51 °F 29% 29.65 in 12 mi Calm Calm - -   Overcast
11:00 AM 78.8 °F - 51.8 °F 39% 29.68 in - ENE 4.5 mph - N/A   Clear
11:30 AM 78.8 °F - 51.8 °F 39% 29.68 in - North 4.5 mph - N/A   Clear
12:00 PM 80.6 °F - 51.8 °F 37% 29.68 in - ESE 4.5 mph - N/A   Clear
12:30 PM 80.6 °F - 50.0 °F 34% 29.68 in - NNE 4.5 mph - N/A   Clear
1:00 PM 78.8 °F - 51.8 °F 39% 29.68 in - SSW 4.5 mph - N/A   Clear
1:30 PM 78.8 °F - 50.0 °F 36% 29.65 in - SSW 6.7 mph - N/A   Clear
2:00 PM 83 °F - 49 °F 20% 29.59 in 31 mi Calm Calm - -   Overcast
2:00 PM 80.6 °F - 50.0 °F 34% 29.65 in - SSW 6.7 mph - N/A   Clear
2:30 PM 80.6 °F - 51.8 °F 37% 29.65 in - SSW 4.5 mph - N/A   Clear
3:00 PM 77.0 °F - 51.8 °F 41% 29.65 in - SSW 6.7 mph - N/A   Clear
3:30 PM 77.0 °F - 53.6 °F 44% 29.65 in - SSW 4.5 mph - N/A   Clear
4:00 PM 77.0 °F - 53.6 °F 44% 29.65 in - South 4.5 mph - N/A   Clear
4:30 PM 80.6 °F 80.5 °F 55.4 °F 42% 29.65 in - South 4.5 mph - N/A   Clear
5:00 PM 80.6 °F - 50.0 °F 34% 29.62 in - SSW 4.5 mph - N/A   Clear
5:30 PM 80.6 °F 80.3 °F 53.6 °F 39% 29.62 in - SSW 4.5 mph - N/A   Clear
6:00 PM 78.8 °F - 55.4 °F 44% 29.62 in - SSW 6.7 mph - N/A   Clear
6:30 PM 77.0 °F - 53.6 °F 44% 29.65 in - South 6.7 mph - N/A   Clear
7:00 PM 75.2 °F - 53.6 °F 47% 29.65 in - South 6.7 mph - N/A   Clear
7:30 PM 69.8 °F - 53.6 °F 56% 29.65 in - SSW 6.7 mph - N/A   Clear
8:00 PM 75 °F - 51 °F 31% 29.62 in 31 mi SE 4.5 mph - -   Overcast
8:00 PM 71.6 °F - 53.6 °F 53% 29.68 in - South 8.9 mph - N/A   Clear
8:30 PM 69.8 °F - 53.6 °F 56% 29.68 in - SSE 11.2 mph - N/A   Clear
9:00 PM 68.0 °F - 51.8 °F 56% 29.68 in - South 15.7 mph - N/A   Clear
9:30 PM 66.2 °F - 51.8 °F 60% 29.68 in - South 17.9 mph - N/A   Clear
10:00 PM 64.4 °F - 51.8 °F 64% 29.71 in - SSE 15.7 mph - N/A   Clear
10:30 PM 62.6 °F - 51.8 °F 68% 29.71 in - SSE 13.4 mph - N/A   Clear
11:00 PM 61 °F - 51 °F 60% 29.69 in - SE 6.7 mph - -   Partly Cloudy
11:00 PM 62.6 °F - 51.8 °F 68% 29.68 in - SSE 8.9 mph - N/A   Clear
11:30 PM 60.8 °F - 51.8 °F 72% 29.68 in - SE 6.7 mph - N/A   Clear